This is the latest recevied weather packets stored in our database for station/object OE-11349. If no packets are shown the sender has not sent any weather packets the latest 10 day(s).
| Time | Temp. | Humidity | Pressure | Rain* | Wind** | Luminosity | Snow |
|---|---|---|---|---|---|---|---|
| 1787826309 | 18.33° C | 67% | 855.4 hPa | - | - | 723 W/m² | - |
| 1787825482 | 18.33° C | 66% | 855.4 hPa | - | - | 709 W/m² | - |
| 1787825109 | 18.33° C | 69% | 855.4 hPa | - | - | 496 W/m² | - |
| 1787824509 | 18.33° C | 71% | 855.2 hPa | - | - | 406 W/m² | - |
| 1787823682 | 18.33° C | 69% | 855.2 hPa | - | - | 516 W/m² | - |
| 1787823309 | 18.33° C | 70% | 855.1 hPa | - | - | 592 W/m² | - |
| 1787822708 | 17.78° C | 70% | 855.4 hPa | - | - | 434 W/m² | - |
| 1787821882 | 17.78° C | 71% | 855.4 hPa | - | - | 399 W/m² | - |
| 1787821508 | 18.33° C | 68% | 855.2 hPa | - | - | 461 W/m² | - |
| 1787820909 | 17.78° C | 71% | 855 hPa | - | - | 516 W/m² | - |
| 1787820082 | 17.78° C | 71% | 855 hPa | - | - | 482 W/m² | - |
| 1787819709 | 17.22° C | 73% | 855 hPa | - | - | 454 W/m² | - |
| 1787819109 | 17.78° C | 76% | 855 hPa | - | - | 523 W/m² | - |
| 1787818282 | 16.67° C | 76% | 855.1 hPa | - | - | 489 W/m² | - |
| 1787817908 | 16.67° C | 76% | 855.1 hPa | - | - | 482 W/m² | - |
| 1787817308 | 16.67° C | 76% | 855.1 hPa | - | - | 447 W/m² | - |
| 1787816481 | 16.67° C | 76% | 855 hPa | - | - | 406 W/m² | - |
| 1787816108 | 16.67° C | 77% | 855 hPa | - | - | 379 W/m² | - |
| 1787815508 | 16.11° C | 78% | 855 hPa | - | - | 344 W/m² | - |
| 1787814682 | 16.11° C | 78% | 854.9 hPa | - | - | 413 W/m² | - |
| 1787814309 | 15.56° C | 80% | 854.9 hPa | - | - | 323 W/m² | - |
| 1787813709 | 15.56° C | 80% | 855.1 hPa | - | - | 344 W/m² | - |
| 1787812882 | 15° C | 83% | 855 hPa | - | - | 323 W/m² | - |
| 1787812509 | 13.89° C | 87% | 855 hPa | - | - | 275 W/m² | - |
| 1787811909 | 13.33° C | 90% | 855.1 hPa | - | - | 145 W/m² | - |
* Rain since midnight (hover to see other rain measurements)
** Current wind speed in m/s (hover to see current wind gust speed)